TROLLHATTAN PRIVATE current weather conditions

sailwx.info

Wind from 060 at 7 knots

Air temperature -0.0° C
Visibility: greater than 5.4 NM
Dewpoint -1.0° C
Present weather: Light snow.

Last reported at 2015-Jan-30 19:20 UTC.
Time now 2015-Jan-31 00:50 UTC

Location: N 58°19' E 012°21'.
View on Google Maps.

See reports from other nearby stations

  
Tides and Currents Weather Stations Pressure Air Temp Water Temp Dewpoint Dewpoint Depression Visibility Wind Speed Wind Dir Waves Ship Positions
date/time (UTC)wind fromknots sea level pressurealtimeterstation pressurevisibilityair tempwater tempwave heightnotes
2015-Jan-30 19:20 060 7 5.4-0.0 Light snow.
2015-Jan-30 18:50 060 8 5.4-0.0 Light snow.
2015-Jan-30 17:50 5.4-1.0
2015-Jan-30 17:20 040 3 5.4-1.0
2015-Jan-30 16:50 030 2 5.4-2.0
2015-Jan-30 16:20 040 4 5.4-1.0
2015-Jan-30 15:50 040 3 5.4-1.0
2015-Jan-30 15:20 040 3 5.4-1.0
2015-Jan-30 14:50 110 4 5.4-0.0
2015-Jan-30 14:20 110 5 5.4-0.0
2015-Jan-30 13:50 110 9 5.4 1.0
2015-Jan-30 13:20 120 8 5.4 1.0
2015-Jan-30 12:50 130 8 5.4 1.0
2015-Jan-30 12:20 150 4 5.4-0.0
2015-Jan-30 11:50 150 4 5.4-1.0
2015-Jan-30 11:20 140 5 5.4-0.0
2015-Jan-30 10:50 160 4 1.7-0.0 Light snow. Mist.
2015-Jan-30 10:20 150 5 5.4-1.0
2015-Jan-30 09:50 130 7 5.4-1.0 Showers in the vicinity.
2015-Jan-30 09:20 130 7 5.4-1.0
2015-Jan-30 08:50 130 8 5.4-1.0
2015-Jan-30 08:20 140 5 4.9-1.0
2015-Jan-30 07:50 150 6 3.8-1.0 Snow showers in the vicinity.
2015-Jan-30 07:20 130 6 5.4-2.0
2015-Jan-30 06:50 150 8 5.4-0.0
2015-Jan-30 06:20 160 9 5.4-0.0
2015-Jan-30 05:50 150 7 3.2-0.0 Light snow.
2015-Jan-30 05:20 140 9 5.4-0.0
2015-Jan-30 04:50 140 8 0.6-0.0 Heavy snow.
2015-Jan-29 18:50 170 8 5.4-0.0
2015-Jan-29 18:20 180 9 5.4 1.0
2015-Jan-29 17:20 170 9 5.4 1.0
2015-Jan-29 16:50 190 10 5.4 1.0
2015-Jan-29 16:20 200 11 5.4 1.0
2015-Jan-29 15:50 200 16 5.4 1.0
2015-Jan-29 15:20 200 14 5.4 2.0
2015-Jan-29 14:50 200 16 5.4 2.0
2015-Jan-29 14:20 200 15 5.4 2.0
2015-Jan-29 13:50 200 14 5.4 2.0
2015-Jan-29 13:20 200 12 4.3 2.0 Showers in the vicinity. Mist.
2015-Jan-29 12:50 200 15 1.6 1.0 Light snow. Mist.
2015-Jan-29 12:20 190 15 2.4 1.0 Light snow. Mist.
2015-Jan-29 11:50 190 16 3.2 1.0 Light snow. Mist.
2015-Jan-29 11:20 210 7 2.7 1.0 Light rain. Mist.
2015-Jan-29 10:50 180 11 1.3 1.0 Light snow. Mist.
2015-Jan-29 10:20 190 14 4.9 2.0 Light rain. Mist.
2015-Jan-29 09:50 190 13 1.6 1.0 Light snow. Mist.
2015-Jan-29 08:50 190 9 0.8 1.0 Snow.
2015-Jan-29 07:50 190 14 2.7 1.0 Light rain snow. Mist.
2015-Jan-29 07:20 190 14 5.4 2.0 Light rain.
2015-Jan-29 06:50 200 13 3.8 2.0 Light rain snow. Mist.
2015-Jan-29 06:20 200 14 3.8 2.0 Light rain snow. Mist.
2015-Jan-29 05:50 190 12 3.8 2.0 Light rain. Mist.
2015-Jan-29 05:20 190 12 4.9 2.0 Light rain. Mist.
2015-Jan-29 04:50 200 11 3.8 2.0 Light rain. Mist.